Regional Weather Roundup
Issued by NWS Nashville, TN

Home | Current Version | Previous Version | Text Only | Print | Product List | Glossary On
Versions: 1 2 3 4 5 6 7 8 9 10 11 12 13 14 15 16 17 18 19 20 21 22 23 24 25 26 27 28
000
ASUS44 KOHX 181010
RWROHX
MIDDLE TENNESSEE HOURLY WEATHER ROUNDUP
NATIONAL WEATHER SERVICE NASHVILLE TN
400 AM CST MON DEC 18 2017

NOTE: "FAIR" INDICATES FEW OR NO CLOUDS BELOW 12,000 FEET WITH
NO SIGNIFICANT WEATHER AND/OR OBSTRUCTIONS TO VISIBILITY.

* THESE REPORTS ARE NOT UNDER NWS QUALITY CONTROL AND MAY NOT
  REPORT WEATHER SUCH AS PRECIPITATION AND FOG.


TNZ005>011-023>034-057-059-062>066-078-080-181100
...NORTHERN MIDDLE TENNESSEE...

CITY           SKY/WX    TMP DP  RH WIND       PRES   REMARKS
CLARKSVILLE    CLOUDY    46  43  89 SW5       30.13S FOG
CROSSVILLE     CLOUDY    43  42  97 CALM      30.14F FOG
GALLATIN       CLOUDY    46  46 100 CALM      30.16S FOG
DICKSON        CLOUDY    45  45 100 SW9       30.12S
NASHVILLE      CLOUDY    47  46  97 S6        30.15R FOG
PORTLAND       CLOUDY    46  46 100 S5        30.12S FOG
SMYRNA         CLOUDY    47  46  97 S3        30.17R FOG
SPARTA         CLOUDY    46  46 100 CALM      30.13S FOG
SPRINGFIELD    CLOUDY    46  46 100 SW6       30.11S FOG
WEST NASHVILLE FOG       46  46 100 CALM      30.12F VSB 3/4
$$
TNZ056-058-060-061-075>077-079-093>097-181100
...SOUTHERN MIDDLE TENNESSEE...

CITY           SKY/WX    TMP DP  RH WIND       PRES   REMARKS
COLUMBIA       CLOUDY    46  46 100 CALM      30.13F FOG
FAYETTEVILLE   FOG       46  46 100 CALM      30.15S VSB 1/4
MCMINNVILLE    FOG       46  46 100 CALM      30.14S VSB 3/4
MURFREESBORO   CLOUDY    47  47 100 SW3       30.15S
PULASKI        FOG       46  46 100 CALM      30.16S VSB 1/2
SHELBYVILLE    CLOUDY    46  46 100 SW5       30.15S FOG
TULLAHOMA      FOG       46  46 100 CALM      30.14S VSB 3/4
WINCHESTER     CLOUDY    45  45 100 SE5       30.16R
$$


...KEY TO REMARKS...
VSB - VISIBILITY IN MILES
WCI - WIND CHILL INDEX
HX  - HEAT INDEX





USA.gov is the U.S. government's official web portal to all federal, state and local government web resources and services.